M.P.E.C. 2014-V68 Issued 2014 Nov. 14, 22:07 UT The Minor Planet Electronic Circulars contain information on unusual minor planets and routine data on comets. They are published on behalf of Commission 20 of the International Astronomical Union by the Minor Planet Center, Smithsonian Astrophysical Observatory, Cambridge, MA 02138, U.S.A. Prepared using the Tamkin Foundation Computer Network MPC@CFA.HARVARD.EDU URL https://www.minorplanetcenter.net/ ISSN 1523-6714 SIX NEW TNOS Observations: K11Uf2P ~C2011 08 29.52378 01 54 21.019+14 33 42.28 23.9 rLEV068568 K11Uf2P ~C2011 08 29.56781 01 54 20.887+14 33 42.12 24.0 rLEV068568 K11Uf2P ~C2011 08 29.61470 01 54 20.750+14 33 41.96 23.8 rLEV068568 K11Uf2P ~C2011 09 05.55403 01 54 00.378+14 33 01.91 23.9 rLEV068568 K11Uf2P*~C2011 10 24.43329 01 50 14.624+14 19 23.76 23.9 rLEV068568 K11Uf2P ~C2011 10 24.47598 01 50 14.391+14 19 22.87 23.7 rLEV068568 K11Uf2P ~C2011 10 24.51878 01 50 14.160+14 19 21.90 23.7 rLEV068568 K11Uf2P ~C2011 10 29.33738 01 49 48.531+14 17 31.74 22.9 rLEV068568 K11Uf2P ~C2011 10 30.55522 01 49 42.060+14 17 03.54 23.9 rLEV068568 K11Uf2P ~C2011 10 31.53810 01 49 36.882+14 16 40.66 24.0 rLEV068568 K11Uf2P ~C2011 11 26.48700 01 47 31.426+14 07 11.42 24.0 rLEV068568 K11Uf2P ~C2012 01 26.25193 01 46 01.469+14 00 55.19 24.0 rLEV068568 K11Uf2P ~C2012 01 27.30909 01 46 03.255+14 01 06.61 23.9 rLEV068568 K11Uf2P ~C2012 08 17.56862 02 00 36.870+15 44 21.75 24.3 rLEV068568 K11Uf2P ~C2012 08 24.52636 02 00 24.394+15 44 36.28 23.8 rLEV068568 K11Uf2P ~C2012 10 17.37393 01 56 44.090+15 33 46.30 23.7 rLEV068568 K11Uf2P ~C2012 10 17.41666 01 56 43.861+15 33 45.42 LEV068568 K11Uf2P ~C2012 10 20.46885 01 56 27.485+15 32 39.61 23.8 rLEV068568 K11Uf2P ~C2012 10 20.51348 01 56 27.248+15 32 38.58 23.6 rLEV068568 K11Uf2P ~C2013 02 02.26555 01 51 59.262+15 12 42.49 24.1 rLEV068568 K11Uf2P ~C2013 02 03.26646 01 52 01.625+15 12 55.77 24.3 rLEV068568 K11Uf2P ~C2013 02 06.28044 01 52 09.393+15 13 39.14 23.8 rLEV068568 K11Uf2P ~C2013 02 06.28578 01 52 09.400+15 13 39.34 23.9 rLEV068568 K11Uf2Q ~C2011 08 29.53248 02 04 35.124+14 57 05.64 23.2 rLEV068568 K11Uf2Q ~C2011 08 29.57665 02 04 35.014+14 57 04.97 23.1 rLEV068568 K11Uf2Q ~C2011 08 29.62382 02 04 34.916+14 57 04.30 23.0 rLEV068568 K11Uf2Q ~C2011 09 05.56255 02 04 17.858+14 55 14.93 23.1 rLEV068568 K11Uf2Q*~C2011 10 24.44181 02 00 46.023+14 32 57.91 23.0 rLEV068568 K11Uf2Q ~C2011 10 24.48455 02 00 45.792+14 32 56.48 23.1 rLEV068568 K11Uf2Q ~C2011 10 24.52730 02 00 45.567+14 32 55.02 23.0 rLEV068568 K11Uf2Q ~C2011 10 30.56385 02 00 14.122+14 29 29.77 23.1 rLEV068568 K11Uf2Q ~C2011 10 31.54671 02 00 09.033+14 28 56.19 23.1 rLEV068568 K11Uf2Q ~C2011 11 24.30055 01 58 13.970+14 15 45.77 23.0 rLEV068568 K11Uf2Q ~C2011 11 24.30481 01 58 13.953+14 15 45.62 23.1 rLEV068568 K11Uf2Q ~C2011 11 30.34681 01 57 48.977+14 12 41.51 23.0 rLEV068568 K11Uf2Q ~C2012 01 25.28725 01 56 35.422+13 57 24.06 23.4 rLEV068568 K11Uf2Q ~C2012 01 26.27207 01 56 37.134+13 57 23.89 23.3 rLEV068568 K11Uf2Q ~C2012 08 23.53769 02 13 13.939+15 04 49.95 23.3 rLEV068568 K11Uf2Q ~C2012 08 24.57339 02 13 12.413+15 04 38.63 23.2 rLEV068568 K11Uf2Q ~C2012 10 17.40813 02 09 53.948+14 43 36.05 22.9 rLEV068568 K11Uf2Q ~C2012 10 17.42550 02 09 53.859+14 43 35.48 22.9 rLEV068568 K11Uf2Q ~C2012 10 20.50496 02 09 37.907+14 41 55.04 23.0 rLEV068568 K11Uf2Q ~C2013 01 04.33671 02 04 47.564+14 07 07.56 23.4 rLEV068568 K11Uf2Q ~C2013 01 14.32244 02 04 44.938+14 05 27.69 23.6 rLEV068568 K11Uf2Q ~C2013 02 02.25552 02 05 10.838+14 05 01.30 23.2 rLEV068568 K11Uf2R ~C2011 08 30.50323 01 53 09.341+17 01 08.04 24.2 rLEV068568 K11Uf2R ~C2011 08 30.54972 01 53 09.190+17 01 08.09 24.6 rLEV068568 K11Uf2R ~C2011 08 30.59613 01 53 09.063+17 01 07.93 24.2 rLEV068568 K11Uf2R ~C2011 10 25.34656 01 48 48.940+16 46 57.35 24.1 rLEV068568 K11Uf2R ~C2011 10 25.39635 01 48 48.666+16 46 55.96 24.0 rLEV068568 K11Uf2R ~C2011 10 25.40523 01 48 48.626+16 46 55.73 24.0 rLEV068568 K11Uf2R ~C2011 10 26.29551 01 48 43.666+16 46 33.78 24.3 rLEV068568 K11Uf2R*~C2011 10 26.30517 01 48 43.615+16 46 33.48 23.9 rLEV068568 K11Uf2R ~C2011 10 26.34841 01 48 43.365+16 46 32.51 24.4 rLEV068568 K11Uf2R ~C2011 10 26.39151 01 48 43.121+16 46 31.28 24.3 rLEV068568 K11Uf2R ~C2011 10 31.39702 01 48 15.390+16 44 25.77 23.9 rLEV068568 K11Uf2R ~C2011 11 24.25792 01 46 13.820+16 34 23.00 24.6 rLEV068568 K11Uf2R ~C2011 11 26.47841 01 46 03.966+16 33 30.10 24.4 rLEV068568 K11Uf2R ~C2012 01 26.30218 01 44 33.141+16 22 32.81 23.9 rLEV068568 K11Uf2R ~C2012 01 27.23615 01 44 34.862+16 22 38.87 24.5 rLEV068568 K11Uf2R ~C2012 08 17.57715 01 59 55.442+18 09 30.67 24.8 rLEV068568 K11Uf2R ~C2012 08 24.53489 01 59 42.372+18 10 06.59 LEV068568 K11Uf2R ~C2012 10 17.38245 01 55 51.230+18 00 13.10 24.2 rLEV068568 K11Uf2R ~C2012 10 20.47747 01 55 33.856+17 59 02.60 24.1 rLEV068568 K11Uf2R ~C2013 02 06.26716 01 51 06.930+17 32 53.62 LEV068568 K12UH7Q ~C2011 09 01.42318 01 31 41.352+28 25 11.96 23.9 rLEV068568 K12UH7Q ~C2011 09 01.46869 01 31 41.213+28 25 12.28 24.3 rLEV068568 K12UH7Q ~C2011 09 01.51133 01 31 41.062+28 25 12.57 23.8 rLEV068568 K12UH7Q ~C2011 09 05.45125 01 31 27.050+28 25 33.94 24.0 rLEV068568 K12UH7Q ~C2011 11 24.35514 01 24 58.798+27 58 36.07 23.9 rLEV068568 K12UH7Q ~C2011 11 30.31101 01 24 36.417+27 55 05.35 23.9 rLEV068568 K12UH7Q ~C2011 12 01.35919 01 24 32.763+27 54 28.23 24.0 rLEV068568 K12UH7Q ~C2012 01 28.29635 01 23 59.935+27 28 49.78 24.2 rLEV068568 K12UH7Q ~C2012 08 18.49191 01 38 23.045+29 11 09.04 24.1 rLEV068568 K12UH7Q ~C2012 08 18.53098 01 38 22.959+29 11 09.84 24.4 rLEV068568 K12UH7Q ~C2012 08 21.52493 01 38 16.162+29 11 59.81 24.0 rLEV068568 K12UH7Q ~C2012 08 23.57612 01 38 10.987+29 12 30.57 23.9 rLEV068568 K12UH7Q ~C2012 08 28.45900 01 37 57.243+29 13 31.75 23.9 rLEV068568 K12UH7Q ~C2012 09 12.38956 01 37 02.984+29 14 53.32 24.1 rLEV068568 K12UH7Q ~C2012 09 14.42586 01 36 54.319+29 14 52.00 24.0 rLEV068568 K12UH7Q ~C2012 10 19.36449 01 33 56.605+29 07 05.65 23.8 rLEV068568 K12UH7Q ~C2012 10 19.40727 01 33 56.375+29 07 04.50 23.8 rLEV068568 K12UH7Q*~C2012 10 20.35652 01 33 51.186+29 06 41.29 23.8 rLEV068568 K12UH7Q ~C2012 10 20.39499 01 33 50.980+29 06 40.38 23.9 rLEV068568 K12UH7Q ~C2012 10 20.43389 01 33 50.758+29 06 39.40 23.9 rLEV068568 K12UH7Q ~C2012 10 21.41799 01 33 45.392+29 06 14.86 LEV068568 K12UH7Q ~C2012 11 14.35465 01 31 41.227+28 54 10.74 23.9 rLEV068568 K12UH7Q ~C2013 01 14.27738 01 29 28.423+28 21 47.39 24.2 rLEV068568 K12UH7Q ~C2013 02 04.22689 01 30 12.101+28 16 31.70 23.9 rLEV068568 K12UH7Q ~C2013 02 06.24045 01 30 18.718+28 16 16.46 24.4 rLEV068568 K12UH7Q ~C2013 02 14.23752 01 30 48.886+28 15 44.63 24.0 rLEV068568 K12UH7R ~C2011 09 01.41872 01 39 03.099+27 48 41.72 24.2 rLEV068568 K12UH7R ~C2011 09 01.46443 01 39 02.955+27 48 41.54 24.3 rLEV068568 K12UH7R ~C2011 09 05.44695 01 38 51.068+27 48 50.60 24.5 rLEV068568 K12UH7R ~C2011 12 01.42393 01 32 44.413+27 17 59.42 24.5 rLEV068568 K12UH7R ~C2012 08 21.50331 01 45 29.520+28 14 17.18 LEV068568 K12UH7R ~C2012 08 23.60417 01 45 25.283+28 14 38.63 24.5 rLEV068568 K12UH7R ~C2012 08 24.41397 01 45 23.580+28 14 46.38 LEV068568 K12UH7R ~C2012 08 24.46174 01 45 23.464+28 14 46.61 LEV068568 K12UH7R ~C2012 08 28.50703 01 45 14.007+28 15 18.15 LEV068568 K12UH7R ~C2012 09 12.48289 01 44 28.295+28 15 46.06 LEV068568 K12UH7R ~C2012 09 14.45580 01 44 21.130+28 15 39.28 24.2 rLEV068568 K12UH7R ~C2012 10 19.39438 01 41 46.307+28 07 15.80 23.9 rLEV068568 K12UH7R ~C2012 10 19.40301 01 41 46.257+28 07 15.78 LEV068568 K12UH7R ~C2012 10 20.38644 01 41 41.509+28 06 52.03 24.2 rLEV068568 K12UH7R*~C2012 10 21.39663 01 41 36.631+28 06 27.45 24.1 rLEV068568 K12UH7R ~C2012 10 21.43518 01 41 36.446+28 06 26.57 24.1 rLEV068568 K12UH7R ~C2012 10 21.47359 01 41 36.255+28 06 25.61 24.4 rLEV068568 K12UH7R ~C2012 11 14.38458 01 39 45.455+27 54 53.28 24.4 rLEV068568 K12UH7R ~C2012 11 16.30609 01 39 37.354+27 53 50.94 24.3 rLEV068568 K12UH7R ~C2013 01 14.25495 01 37 40.600+27 24 13.59 24.5 rLEV068568 K12UH7R ~C2013 01 14.26012 01 37 40.606+27 24 13.38 24.3 rLEV068568 K12UH7R ~C2013 01 14.29462 01 37 40.633+27 24 12.46 24.3 rLEV068568 K12UH7R ~C2013 02 03.31560 01 38 15.070+27 18 57.57 24.2 rLEV068568 K12UH7R ~C2013 02 09.28310 01 38 32.721+27 18 08.41 24.4 rLEV068568 K12UH7R ~C2013 02 09.28815 01 38 32.737+27 18 08.39 24.5 rLEV068568 K12UH7R ~C2013 02 14.22894 01 38 49.752+27 17 44.62 24.3 rLEV068568 K12UH7S ~C2011 08 31.60929 01 43 33.169+26 58 20.30 LEV068568 K12UH7S ~C2011 09 05.51527 01 43 17.043+26 58 26.31 24.3 rLEV068568 K12UH7S ~C2011 11 24.40211 01 36 39.395+26 24 36.89 24.2 rLEV068568 K12UH7S ~C2011 12 01.43672 01 36 11.391+26 19 52.08 24.4 rLEV068568 K12UH7S ~C2012 01 28.27620 01 35 33.979+25 50 10.70 24.9 rLEV068568 K12UH7S ~C2012 08 18.56522 01 52 19.617+27 20 35.61 LEV068568 K12UH7S ~C2012 08 23.51180 01 52 10.204+27 21 30.85 24.3 rLEV068568 K12UH7S ~C2012 08 23.52043 01 52 10.181+27 21 30.92 24.4 rLEV068568 K12UH7S ~C2012 08 24.47891 01 52 08.063+27 21 39.52 24.4 rLEV068568 K12UH7S ~C2012 08 28.45470 01 51 58.324+27 22 08.68 24.2 rLEV068568 K12UH7S ~C2012 08 28.49840 01 51 58.187+27 22 08.95 LEV068568 K12UH7S ~C2012 08 28.54123 01 51 58.083+27 22 09.18 24.1 rLEV068568 K12UH7S ~C2012 09 14.47302 01 51 00.272+27 22 05.12 24.3 rLEV068568 K12UH7S ~C2012 10 20.42963 01 47 57.983+27 10 57.08 24.2 rLEV068568 K12UH7S*~C2012 10 21.41369 01 47 52.480+27 10 27.67 24.1 rLEV068568 K12UH7S ~C2012 10 21.45226 01 47 52.261+27 10 26.64 24.4 rLEV068568 K12UH7S ~C2012 10 21.49068 01 47 52.038+27 10 25.36 24.1 rLEV068568 K12UH7S ~C2012 11 14.40182 01 45 43.082+26 56 31.47 24.4 rLEV068568 K12UH7S ~C2012 11 16.32639 01 45 33.587+26 55 17.18 24.2 rLEV068568 K12UH7S ~C2013 01 14.24596 01 43 16.888+26 20 19.68 24.2 rLEV068568 K12UH7S ~C2013 01 14.30364 01 43 16.928+26 20 18.31 24.4 rLEV068568 K12UH7S ~C2013 02 03.31096 01 43 57.763+26 14 10.57 24.1 rLEV068568 K12UH7S ~C2013 02 09.26083 01 44 18.591+26 13 13.08 24.4 rLEV068568 K12UH7S ~C2013 02 14.25904 01 44 38.976+26 12 44.24 24.0 rLEV068568 K12UH7S ~C2013 02 17.25617 01 44 52.414+26 12 35.62 24.3 rLEV068568 Observer details: 568 Mauna Kea. Observers M. Alexandersen, J. Kavelaars, B. Gladman. Measurers M. Alexandersen, J. Kavelaars, J.-M. Petit, S. Gwyn. 3.5-m Canada-France-Hawaii Telescope + CCD. Orbital elements: 2011 UP412 Epoch 2014 Dec. 9.0 TT = JDT 2457000.5 MPC M 354.03282 (2000.0) P Q n 0.00232619 Peri. 26.76968 +0.65495211 -0.74396410 a 56.4121163 Node 23.09694 +0.61860816 +0.42715122 e 0.3453120 Incl. 19.73994 +0.43400654 +0.51386696 P 424 H 8.2 G 0.15 U 4 Residuals in seconds of arc 110829 568 0.2+ 0.0 111030 568 0.0 0.2+ 121017 568 0.1+ 0.0 110829 568 0.0 0.0 111031 568 0.1+ 0.0 121020 568 0.1- 0.0 110829 568 0.1- 0.1+ 111126 568 0.0 0.2- 121020 568 0.0 0.0 110905 568 0.0 0.3- 120126 568 0.0 0.0 130202 568 0.1+ 0.1- 111024 568 0.0 0.1- 120127 568 0.1- 0.1+ 130203 568 0.0 0.0 111024 568 0.0 0.0 120817 568 0.0 0.1- 130206 568 0.0 0.0 111024 568 0.0 0.0 120824 568 0.0 0.1- 130206 568 0.1- 0.2+ 111029 568 0.0 0.3+ 121017 568 0.1+ 0.0 2011 UQ412 Epoch 2014 Dec. 9.0 TT = JDT 2457000.5 MPC M 354.28201 (2000.0) P Q n 0.00177756 Peri. 197.81739 +0.54168401 -0.82004231 a 67.4920883 Node 219.94840 +0.80198868 +0.56999552 e 0.4844601 Incl. 16.71611 +0.25177885 -0.05133926 P 554 H 7.7 G 0.15 U 4 Residuals in seconds of arc 110829 568 0.1+ 0.0 111031 568 0.0 0.1+ 121017 568 0.0 0.1+ 110829 568 0.0 0.1- 111124 568 0.1+ 0.1+ 121017 568 0.0 0.1+ 110829 568 0.1+ 0.1- 111124 568 0.1+ 0.1+ 121020 568 0.0 0.0 110905 568 0.0 0.0 111130 568 0.1- 0.0 130104 568 0.1- 0.1- 111024 568 0.0 0.0 120125 568 0.1+ 0.1- 130114 568 0.0 0.0 111024 568 0.1- 0.0 120126 568 0.1+ 0.1- 130202 568 0.1+ 0.1- 111024 568 0.1- 0.0 120823 568 0.0 0.0 111030 568 0.1- 0.1+ 120824 568 0.1- 0.1+ 2011 UR412 Epoch 2014 Dec. 9.0 TT = JDT 2457000.5 MPC M 343.82166 (2000.0) P Q n 0.00277342 Peri. 54.59138 +0.35404548 -0.93170309 a 50.1717490 Node 15.31004 +0.72711615 +0.21967009 e 0.3162122 Incl. 17.89297 +0.58817846 +0.28926528 P 355 H 8.8 G 0.15 U 4 Residuals in seconds of arc 110830 568 0.1+ 0.1+ 111026 568 0.0 0.1- 120127 568 0.1+ 0.1+ 110830 568 0.1- 0.2+ 111026 568 0.1- 0.0 120817 568 0.0 0.3+ 110830 568 0.0 0.1+ 111026 568 0.1- 0.2- 120824 568 0.0 0.1+ 111025 568 0.1- 0.0 111031 568 0.1- 0.0 121017 568 0.1- 0.1- 111025 568 0.0 0.1- 111124 568 0.0 0.0 121020 568 0.1+ 0.2- 111025 568 0.1+ 0.1- 111126 568 0.0 0.0 130206 568 0.0 0.0 111026 568 0.0 0.1- 120126 568 0.1+ 0.0 2012 UQ177 Epoch 2014 Dec. 9.0 TT = JDT 2457000.5 MPC M 331.73248 (2000.0) P Q n 0.00262188 Peri. 120.24304 -0.03396380 -0.98546016 a 52.0867408 Node 330.27812 +0.76209163 +0.08222827 e 0.3151760 Incl. 19.62009 +0.64657777 -0.14868349 P 376 H 8.0 G 0.15 U 3 Residuals in seconds of arc 110901 568 0.1- 0.1- 120818 568 0.0 0.1+ 121020 568 0.0 0.0 110901 568 0.1+ 0.1- 120821 568 0.2+ 0.0 121020 568 0.0 0.0 110901 568 0.1+ 0.1- 120823 568 0.1- 0.1+ 121021 568 0.0 0.0 110905 568 0.1+ 0.1- 120828 568 0.2+ 0.1+ 121114 568 0.0 0.1- 111124 568 0.1- 0.0 120912 568 0.2- 0.0 130114 568 0.0 0.1- 111130 568 0.1- 0.1+ 120914 568 0.1- 0.0 130204 568 0.1- 0.1+ 111201 568 0.0 0.0 121019 568 0.1- 0.1+ 130206 568 0.0 0.1- 120128 568 0.1+ 0.2+ 121019 568 0.0 0.0 130214 568 0.3+ 0.1- 120818 568 0.0 0.0 121020 568 0.1- 0.0 2012 UR177 Epoch 2014 Dec. 9.0 TT = JDT 2457000.5 MPC M 342.55918 (2000.0) P Q n 0.00154798 Peri. 158.21300 -0.01096039 -0.96510390 a 74.0103195 Node 291.61591 +0.87085806 +0.11937452 e 0.4938061 Incl. 16.34554 +0.49141236 -0.23307549 P 637 H 7.9 G 0.15 U 3 Residuals in seconds of arc 110901 568 0.2+ 0.2+ 120912 568 0.0 0.0 121116 568 0.0 0.1- 110901 568 0.0 0.2- 120914 568 0.1- 0.1+ 130114 568 0.1+ 0.1+ 110905 568 0.1- 0.1- 121019 568 0.1- 0.0 130114 568 0.1+ 0.0 111201 568 0.0 0.1- 121019 568 0.2- 0.2+ 130114 568 0.2+ 0.2- 120821 568 0.1- 0.2- 121020 568 0.1- 0.0 130203 568 0.1- 0.1+ 120823 568 0.0 0.1- 121021 568 0.0 0.1+ 130209 568 0.0 0.2- 120824 568 0.1+ 0.2+ 121021 568 0.0 0.2+ 130209 568 0.0 0.2- 120824 568 0.0 0.1- 121021 568 0.0 0.2+ 130214 568 0.1+ 0.1- 120828 568 0.0 0.0 121114 568 0.0 0.0 2012 US177 Epoch 2014 Dec. 9.0 TT = JDT 2457000.5 MPC M 14.59767 (2000.0) P Q n 0.00234837 Peri. 92.76051 +0.95211235 -0.07823391 a 56.0563845 Node 271.85029 -0.04506566 +0.92024199 e 0.3655913 Incl. 17.20096 +0.30240891 +0.38345030 P 420 H 8.7 G 0.15 U 4 Residuals in seconds of arc 110831 568 0.1+ 0.1- 120828 568 0.0 0.1+ 121116 568 0.1- 0.0 110905 568 0.1- 0.0 120828 568 0.2- 0.1+ 130114 568 0.1+ 0.0 111124 568 0.1+ 0.0 120828 568 0.0 0.1+ 130114 568 0.0 0.0 111201 568 0.1- 0.1- 120914 568 0.2- 0.0 130203 568 0.1+ 0.1+ 120128 568 0.1+ 0.0 121020 568 0.0 0.0 130209 568 0.0 0.0 120818 568 0.2+ 0.0 121021 568 0.0 0.1- 130214 568 0.0 0.1- 120823 568 0.1+ 0.2+ 121021 568 0.0 0.0 130217 568 0.0 0.1- 120823 568 0.1+ 0.1+ 121021 568 0.1- 0.1- 120824 568 0.0 0.1+ 121114 568 0.0 0.2- Ephemeris: 2011 UP412 a,e,i = 56.41, 0.35, 20 q = 36.932 Date TT R. A. (2000) Decl. Delta r Elong. Phase V 2014 10 15 02 09 08.0 +17 57 45 36.2260 37.1878 164.5 0.4 23.9 ... 2014 10 30 02 07 46.3 +17 52 38 36.1949 37.1849 175.3 0.1 23.9 ... 2014 11 07 02 07 02.7 +17 49 39 36.2063 37.1834 170.2 0.3 23.9 ... 2014 11 13 02 06 30.9 +17 47 23 36.2274 37.1822 164.5 0.4 23.9 2014 11 14 02 06 25.7 +17 47 01 36.2319 37.1820 163.6 0.4 23.9 2014 11 15 02 06 20.5 +17 46 38 36.2368 37.1818 162.6 0.5 23.9 ... 2014 11 21 02 05 50.4 +17 44 23 36.2721 37.1807 156.6 0.6 24.0 ... 2014 11 29 02 05 13.0 +17 41 30 36.3349 37.1792 148.5 0.8 24.0 ... 2014 12 14 02 04 14.8 +17 36 43 36.4965 37.1763 133.1 1.1 24.0 2011 UQ412 a,e,i = 67.49, 0.48, 17 q = 34.795 Date TT R. A. (2000) Decl. Delta r Elong. Phase V 2014 10 15 02 27 33.8 +14 55 51 34.4696 35.4192 162.0 0.5 23.2 ... 2014 10 30 02 26 15.6 +14 47 56 34.4215 35.4136 177.2 0.1 23.2 ... 2014 11 07 02 25 32.9 +14 43 36 34.4238 35.4106 174.6 0.2 23.2 ... 2014 11 13 02 25 01.4 +14 40 23 34.4382 35.4083 168.4 0.3 23.2 2014 11 14 02 24 56.2 +14 39 51 34.4417 35.4079 167.4 0.3 23.2 2014 11 15 02 24 51.0 +14 39 19 34.4455 35.4076 166.4 0.4 23.2 ... 2014 11 21 02 24 20.8 +14 36 11 34.4743 35.4053 160.2 0.5 23.2 ... 2014 11 29 02 23 42.9 +14 32 12 34.5290 35.4024 151.9 0.8 23.3 ... 2014 12 14 02 22 42.7 +14 25 35 34.6771 35.3968 136.4 1.1 23.3 2011 UR412 a,e,i = 50.17, 0.32, 18 q = 34.307 Date TT R. A. (2000) Decl. Delta r Elong. Phase V 2014 10 15 02 09 17.7 +20 21 25 34.6770 35.6314 162.9 0.5 24.4 ... 2014 10 30 02 07 51.6 +20 16 01 34.6387 35.6249 173.1 0.2 24.3 ... 2014 11 07 02 07 05.6 +20 12 45 34.6461 35.6214 169.6 0.3 24.3 ... 2014 11 13 02 06 32.1 +20 10 13 34.6643 35.6188 164.5 0.4 24.3 2014 11 14 02 06 26.6 +20 09 48 34.6683 35.6184 163.5 0.5 24.4 2014 11 15 02 06 21.1 +20 09 22 34.6727 35.6180 162.6 0.5 24.4 ... 2014 11 21 02 05 49.4 +20 06 48 34.7050 35.6154 156.8 0.6 24.4 ... 2014 11 29 02 05 10.0 +20 03 25 34.7639 35.6120 148.9 0.8 24.4 ... 2014 12 14 02 04 08.7 +19 57 35 34.9185 35.6055 133.7 1.1 24.4 2012 UQ177 a,e,i = 52.09, 0.32, 20 q = 35.670 Date TT R. A. (2000) Decl. Delta r Elong. Phase V 2014 10 15 01 47 06.2 +30 47 15 38.5986 39.5158 156.6 0.6 24.0 ... 2014 10 30 01 45 42.0 +30 41 24 38.5628 39.5063 161.6 0.5 24.0 ... 2014 11 07 01 44 58.3 +30 37 30 38.5703 39.5012 159.7 0.5 24.0 ... 2014 11 13 01 44 26.8 +30 34 18 38.5879 39.4974 156.5 0.6 24.0 2014 11 14 01 44 21.7 +30 33 45 38.5918 39.4967 155.8 0.6 24.0 2014 11 15 01 44 16.6 +30 33 12 38.5960 39.4961 155.2 0.6 24.0 ... 2014 11 21 01 43 47.4 +30 29 46 38.6271 39.4923 150.8 0.7 24.0 ... 2014 11 29 01 43 12.0 +30 25 01 38.6836 39.4872 144.1 0.8 24.1 ... 2014 12 14 01 42 19.3 +30 15 59 38.8312 39.4777 130.5 1.1 24.1 2012 UR177 a,e,i = 74.01, 0.49, 16 q = 37.464 Date TT R. A. (2000) Decl. Delta r Elong. Phase V 2014 10 15 01 54 43.3 +29 02 29 42.3976 43.3216 157.6 0.5 24.3 ... 2014 10 30 01 53 29.2 +28 56 39 42.3532 43.3079 163.8 0.4 24.3 ... 2014 11 07 01 52 50.3 +28 52 55 42.3563 43.3006 162.1 0.4 24.3 ... 2014 11 13 01 52 22.2 +28 49 53 42.3708 43.2951 158.8 0.5 24.3 2014 11 14 01 52 17.7 +28 49 21 42.3742 43.2942 158.1 0.5 24.3 2014 11 15 01 52 13.1 +28 48 50 42.3779 43.2932 157.5 0.5 24.3 ... 2014 11 21 01 51 46.9 +28 45 37 42.4061 43.2878 152.9 0.6 24.3 ... 2014 11 29 01 51 14.9 +28 41 11 42.4590 43.2804 146.0 0.7 24.3 ... 2014 12 14 01 50 26.6 +28 32 50 42.6008 43.2667 132.1 1.0 24.4 2012 US177 a,e,i = 56.06, 0.37, 17 q = 35.563 Date TT R. A. (2000) Decl. Delta r Elong. Phase V 2014 10 15 02 05 13.2 +27 57 38 36.1958 37.1193 157.5 0.6 24.5 ... 2014 10 30 02 03 49.3 +27 50 49 36.1643 37.1266 165.5 0.4 24.4 ... 2014 11 07 02 03 04.8 +27 46 28 36.1745 37.1305 164.5 0.4 24.4 ... 2014 11 13 02 02 32.4 +27 42 59 36.1946 37.1334 161.3 0.5 24.4 2014 11 14 02 02 27.1 +27 42 23 36.1989 37.1339 160.6 0.5 24.4 2014 11 15 02 02 21.9 +27 41 47 36.2036 37.1344 159.9 0.5 24.4 ... 2014 11 21 02 01 51.5 +27 38 05 36.2375 37.1373 155.3 0.6 24.5 ... 2014 11 29 02 01 14.1 +27 33 00 36.2985 37.1412 148.3 0.8 24.5 ... 2014 12 14 02 00 17.0 +27 23 28 36.4567 37.1486 134.1 1.1 24.5 These detached Trans-Neptunian objects were detected in a characterised survey. Characterisation data and other information will be available from the discoverers after acceptance of a journal paper detailing the survey. Dynamical classifications are based on a 10 Myr integration of the nominal orbit as well as the two extremal semi-major axis orbits compatible with the astrometry. Gareth V. Williams (C) Copyright 2014 MPC M.P.E.C. 2014-V68
